Regional Weather Roundup
Issued by NWS Grand Forks, ND

Home | Current Version | Previous Version | Graphics & Text | Print | Product List | Glossary On
Versions: 1 2 3 4 5 6 7 8 9 10 11 12 13 14 15 16 17 18 19 20 21 22 23 24 25 26 27 28 29 30 31 32 33 34 35 36 37 38 39 40 41 42 43 44 45 46 47 48 49 50
959
ASUS43 KFGF 261431
RWRFGF
PRAIRIE TO PINES  WEATHER ROUNDUP
NATIONAL WEATHER SERVICE EASTERN NORTH DAKOTA/GRAND FORKS ND
900 AM CDT THU APR 26 2018

 **SATELLITE DATA USED TO AUGMENT SKY COVER AT AUTOMATED STATIONS**
 *****  WEATHER ACROSS EASTERN NORTH DAKOTA  *****

CITY           SKY/WX    TMP DP  RH WIND       PRES   REMARKS
GRAND FORKS    FAIR      43  33  68 N21G29    30.04R
GRAND FRKS AFB FAIR      46  31  56 N17G24    30.05R
GRAND FRKS NWS   N/A     46  32  58 N16       30.02R
DEVILS LAKE    FAIR      41  29  62 N9        30.10R
FARGO          FAIR      47  33  58 N22       30.01R
WAHPETON ARPT  FAIR      48  30  49 N24G33    30.00R
$$

 ***** WEATHER ACROSS CENTRAL AND WESTERN NORTH DAKOTA  *****

CITY           SKY/WX    TMP DP  RH WIND       PRES   REMARKS
BISMARCK       FAIR      47  32  56 NW7       30.14S
MINOT          FAIR      45  29  53 W9        30.13R
JAMESTOWN      FAIR      45  30  55 N15       30.07R
MINOT AFB      FAIR      43  30  60 NW12      30.11S
GARRISON         N/A     42  32  67 NW9       30.14R
WILLISTON      FAIR      42  31  64 SW5       30.18R
DICKINSON      FAIR      44  33  65 NW9       30.16R
HETTINGER      FAIR      47  32  56 NW10      30.19R
$$

 *****  OTHER AIRPORT OBSERVATIONS IN OUR AREA  *****

CITY           SKY/WX    TMP DP  RH WIND       PRES   REMARKS
WALHALLA       FAIR      43  30  61 N15       30.07S
GRAFTON AIRPOR FAIR      43  30  61 N16G23    30.08R
VALLEY CITY AR FAIR      46  30  53 N14G22    30.08R
CANDO          FAIR      46  27  46 N10       30.12S
CAVALIER APRT    N/A     41  30  65 N13       30.07R
GWINNER          N/A     48  32  53 N20G28    30.05R
SHEYENNE NWR     N/A     49  29  46 N14       29.95S
ROLLA          FAIR      43  27  52 NW6       30.10S
 ***** THE ABOVE OBSERVATIONS ARE NON NWS ARE NOT QUALITY
       CONTROLLED AND MAY MIS-REPORT RAIN FOR SNOW...
$$

  *****  WEATHER ACROSS NORTHERN MINNESOTA  *****

CITY           SKY/WX    TMP DP  RH WIND       PRES   REMARKS
FLAG ISLAND    FAIR      37  30  75 NW12      29.95R
WARROAD        FAIR      45  34  65 NW12G20   29.98R
ROSEAU         FAIR      45  36  70 NW16      29.99R
HALLOCK        FAIR      45  30  57 N14       30.04R
THF RVR FALLS  FAIR      41  30  65 NW22G29   30.00R
BAUDETTE       FAIR      43  36  76 N14G23    29.92R
WASKISH        PTSUNNY   46  36  66 N8        29.92R
CROOKSTON      FAIR      43  34  70 N22       30.03R
STEPHEN NDAWN    N/A     43  30  61 N17         N/A
GREENBUSH NDAW   N/A     39  32  75 N15         N/A
$$
  *****  WEATHER ACROSS CENTRAL AND WEST MINNESOTA  *****

CITY           SKY/WX    TMP DP  RH WIND       PRES   REMARKS
FOSSTON        FAIR      43  30  61 NW20      29.97R
BEMIDJI        FAIR      47  34  60 N13G18    29.92R
PARK RAPIDS    FAIR      47  33  58 N16G28    29.90R
ELBOW LAKE     FAIR      48  32  53 N23G29    29.95R
WADENA         FAIR      46  34  61 N18G25    29.91R
DETROIT LAKES  FAIR      45  30  57 N24G30    29.96R
MOORHEAD       FAIR      46  30  53 N23G30    30.01R
FERGUS FALLS   FAIR      48  25  40 N22G31    29.95R
MORRIS MN      FAIR      50  37  62 N18G25    29.94R
STAPLES        FAIR      48  32  53 N22       29.89R
$$
  *****  WEATHER ELSEWHERE ACROSS MINNESOTA  *****

CITY           SKY/WX    TMP DP  RH WIND       PRES   REMARKS
DULUTH         FAIR      48  32  53 W9        29.78S
INTRNTL FALLS  CLOUDY    44  35  70 N15       29.89R
ELY            FAIR      46  28  49 NW13G22   29.79R
CLOQUET        FAIR      48  28  46 W8G18     29.79F
WHEATON        FAIR      46  32  57 N21G26    30.01R
BRAINERD       FAIR      46  33  60 N15       29.86R
HIBBING        CLOUDY    43  31  62 NW15      29.81R
ALEXANDRIA     FAIR      51  34  52 N17G28    29.90R
SAINT CLOUD    FAIR      49  33  54 W9        29.84S
MINNEAPOLIS    FAIR      53  34  48 SW12      29.86F
$$

  *****  WEATHER ACROSS SOUTH DAKOTA  *****

CITY           SKY/WX    TMP DP  RH WIND       PRES   REMARKS
SIOUX FALLS    PTSUNNY   48  35  60 W9        29.91R
BROOKINGS      FAIR      47  36  65 N18G25    29.93R
WATERTOWN      FAIR      48  33  56 N29G36    29.96R
HURON          FAIR      48  34  58 N22G29    30.02R
SISSETON         N/A     49  34  56 N21G29    30.00R
ABERDEEN       FAIR      50  31  48 N18G26    30.07R
MITCHELL       FAIR      48  36  63 N22G39    29.98R
PIERRE         FAIR      48  32  53 N17       30.12R
MOBRIDGE       FAIR      46  33  60 NW8       30.12R
RAPID CITY     FAIR      49  33  54 N21       30.22R
$$

  *****  SOME WEATHER IN NEARBY STATES *****

CITY           SKY/WX    TMP DP  RH WIND       PRES   REMARKS
GLASGOW MT     FAIR      42  34  73 W3        30.19S
GREAT FALLS MT FAIR      45  30  55 S12       30.21S
CHEYENNE WY    CLOUDY    41  29  62 N20G29    30.26R
SCOTTSBLUFF NE FAIR      50  34  54 N12       30.23R
OMAHA NE       CLOUDY    49  38  65 CALM      29.97S
DES MOINES IA  CLOUDY    51  37  58 CALM      29.96F
DAVENPORT IA   FAIR      49  34  56 S8        29.98S
CHICAGO IL     FAIR      49  29  46 CALM      29.96S
EAU CLAIRE WI  FAIR      48  33  56 SW7       29.88F
LA CROSSE WI   FAIR      48  37  65 S6        29.92F
$$

  *****  SOME NATIONAL WEATHER *****

CITY           SKY/WX    TMP DP  RH WIND       PRES   REMARKS
LA GUARDIA NY  FAIR      58  42  55 W21G29    29.71R
RALEIGH NC     PTSUNNY   61  52  72 VRB6      29.90R
ATLANTA GA     LGT RAIN  55  52  89 W9        29.93R
NEW ORLEANS LA CLOUDY    63  59  87 NW10      29.94R
OKLAHOMA CITY  FAIR      50  42  74 N5        30.05R
ALBUQUERQUE NM FAIR      53  32  44 S6        30.12R
SALT LAKE CITY FAIR      53  34  48 SE5       30.18R
LOS ANGELES CA CLOUDY    56  50  80 CALM      30.03R
BOISE ID       FAIR      52  34  50 SE7       30.16R
SEATTLE WA     FAIR      54  42  64 N5        30.03R
$$

*** WEATHER ACROSS MANITOBA...SASKATCHEWAN AND ONTARIO ***
                ***ONTARIO***

CITY           SKY/WX    TMP DP  RH WIND       PRES   REMARKS
GERALDTON      CLOUDY    43  27  52 SW10      29.68S
THUNDER BAY    CLOUDY    43  32  65 VRB2      29.74F
SIOUX LOOKOUT  LGT RAIN  37  36  93 N8        29.85R
TORONTO        MOSUNNY   46  36  66 NW20      29.84R
BIG TROUT LK   CLOUDY    21  16  79 N9        29.96R WCI  11
PICKLE LAKE    LGT SNOW  30  28  93 N7        29.85R WCI  23
DRYDEN         CLOUDY    37  32  81 N10G17    29.88R
KENORA         PTSUNNY   37  32  81 N10G17    29.93R
$$
                *** MANITOBA***

CITY           SKY/WX    TMP DP  RH WIND       PRES   REMARKS
BRANDON        MOSUNNY   41  30  65 W7        30.09S
DAUPHIN        SUNNY     43  30  61 W8        30.05F
ISLAND LAKE    CLOUDY    23  19  86 NW3       30.02F
PILOT MOUND      N/A     39  28  65 NW7         N/A
THE PAS        CLOUDY    34  28  80 SE16      29.88F WCI  23
THOMPSON       PTSUNNY   23  14  68 SE6       29.98F WCI  16
WINNIPEG       SUNNY     41  30  65 N14       30.05S
LYNN LAKE      LGT SNOW  27  27 100 S8G17     29.79F WCI  18
CHURCHILL      PTSUNNY   12   5  73 W7        30.06F WCI   2
GILLAM         MOSUNNY   16   9  73 VRB2      30.04F
$$
                ***SASKATCHEWAN***

CITY           SKY/WX    TMP DP  RH WIND       PRES   REMARKS
ESTEVAN        MOSUNNY   41  30  65 W7        30.13S
KINDERSLEY     SUNNY     43  30  61 SW12      30.07F
LLOYDMINSTER   SUNNY     46  30  53 W14       30.00S
PRINCE ALBERT  MOSUNNY   48  28  46 W13       29.93F
REGINA         SUNNY     45  30  57 W13G18    30.09S
YORKTON        MOSUNNY   43  30  61 SW10      30.02F
N. BATTLEFORD  SUNNY     48  28  46 W9        30.02S
LA RONGE       MOSUNNY   48  27  43 W14G26    29.81S
SASKATOON      MOSUNNY   45  30  57 SW14      30.03F
SWIFT CURRENT  SUNNY     43  28  56 SW13      30.11S
$$
NOTE: THESE ARE AUTOMATED STATIONS WITH LIMITED QUALITY CONTROL
      "FAIR" INDICATES FEW OR NO CLOUDS BELOW 12,000 FEET WITH NO
      SIGNIFICANT WEATHER AND/OR OBSTRUCTIONS TO VISIBILITY.
      SKY/WX - SKY CONDITION AND SIGNIFICANT WEATHER.
      TMP - AIR TEMPERATURE.    DP   - DEWPOINT TEMPERATURE.
      RH  - RELATIVE HUMIDITY.  PRES - PRESSURE.
      HX  - HEAT INDEX.         WCI  - WIND CHILL INDEX.
$




USA.gov is the U.S. government's official web portal to all federal, state and local government web resources and services.